ATLAS 5 CENTAUR DEB, 44665

Orbit data source: Space-Track

ATLAS 5 CENTAUR DEB, 44665 is space debris in HEO originally from a launch on Wed, 17 Oct 2018 UTC launched from the Air Force Eastern Test Range (AFETR). Debris objects in space refer to the collection of defunct objects orbiting the Earth. Examples of debris include non-operational satellites, rocket bodies, and fragments generated from explosions, collisions, or faulty payload assembly.

Loading next visibility...
Identifier
44665, 2018-079AB
Orbit
HEO
Country
Flag of USUS
Related business
Flag of USUnited Launch Alliance/Lockheed Martin (US)
Manufacturer
ULA Decatur
Mission
Spacecraft
Bus & Motor
Unknown
Mass
Unknown
Launch date (UTC)
2018-10-17 (8 years ago)
Launch vehicle
Unknown
Launch site
Air Force Eastern Test Range (AFETR)
Object type
Payload
Rocket body
Debris
Shape & HBR
Unknown shape, 1.1 m
Radar Cross Section
Medium (>0.1 m² and <1 m²)

Expand to show TLE details & history
Last TLE update: 8 hours ago

TLE from 8 hours ago
0 ATLAS 5 CENTAUR DEB
1 44665U 18079AB  26266.81236475 -.00000089  00000-0  00000-0 0  9996
2 44665  12.8668  66.3878 4622249 249.8238  55.8894  1.68616689 45044
Epoch: 2026-09-23T19:29Z
TLE epoch observation values (Epoch: 2026-09-23T19:29:48.314Z)
Latitude
0.00001°
Longitude
131.34372°
Altitude
21,487.316 km
Speed
3.904 km/s
True Right ascension
04h 25m 48s
True Declination
0° 00' 00"
Sunlit
Object was in daylight at epoch
Visualization orbit readout
Latitude
Unknown
Longitude
Unknown
Altitude
Unknown
Speed
Unknown
Apparent Right ascension
Unknown
Apparent Declination
Unknown
Sunlit
N/A
Visualization observer readout
Local Sidereal Time
20:43:27
Azimuth
Unknown
Elevation
Unknown
Doppler factor
Unknown
Orbital elements
Apogee altitude
37,224.337 km
Perigee altitude
9,657.922 km
Semi-major axis
29,819.267 km
Eccentricity
0.46222
Inclination
12.8668°
RAAN
66.3878°
Arg. of periapsis
249.8238°
True anomaly
110.31437°
Mean anomaly
55.8894°
Eccentric anomaly
82.12306°
Mean motion
0.4215 °/min
Orbital period
854.09 mins
BSTAR
0
Loading maneuver chart data...
Computing Atmospheric mass density...

Documentation

Showing up to 5 results
|